Miscellaneous Local Product
Issued by NWS North Platte, NE

Home | Current Version | Previous Version | Text Only | Print | Product List | Glossary On
Versions: 1 2 3 4 5 6 7 8 9 10 11 12 13 14 15 16 17 18 19 20 21 22 23 24 25 26 27 28 29 30 31 32 33 34 35 36 37 38 39 40 41 42 43 44 45 46 47 48 49 50
000
AXUS43 KLBF 260010
MISLBF


WESTERN AND NORTH CENTRAL NEBRASKA HOURLY WEATHER ROUNDUP
NATIONAL WEATHER SERVICE NORTH PLATTE NE
700 PM CDT SAT OCT 25 2014

***STATIONS NOT REPORTING VARIABLES SUCH AS SKY/WEATHER OR
PRESSURE ARE PROVIDED BY THE NEBRASKA DEPARTMENT OF
ROADS...RAWS...AND APRS NETWORKS...AND ARE NOT UNDER
NATIONAL WEATHER SERVICE QUALITY CONTROL***

...OBSERVATIONS IN AND NEAR THE EASTERN PANHANDLE OF NEBRASKA...

CITY           SKY/WX    TMP DP  RH WIND       PRES   REMARKS
PINE RIDGE     CLEAR     61  39  44 E8        29.97F
CHADRON        CLEAR     64  41  42 E3        29.94F
ALLIANCE       CLEAR     60  36  40 SE10      29.99F
SIDNEY         CLEAR     60  40  47 SE8       30.03F
WHITECLAY        N/A     58  38  45 SE7         N/A
RUSHVILLE        N/A     63  30  29 SE15        N/A
LISCO            N/A     67  31  25 E8          N/A
BIG SPRINGS      N/A     79  40  24 CALM        N/A
LEWELLEN         N/A     74  32  21 CALM        N/A
$$

...OBSERVATIONS IN NORTH CENTRAL NEBRASKA...

CITY           SKY/WX    TMP DP  RH WIND       PRES   REMARKS
VALENTINE      CLEAR     60  33  36 E9        30.02F
THEDFORD       CLEAR     63  41  44 E7        30.03S
AINSWORTH      CLEAR     57  34  42 E7        30.03F
O`NEILL        CLEAR     57  38  47 E6        30.05F
ORD            CLEAR     61  41  47 E5        30.01F
BROKEN BOW     CLEAR     62  45  53 E7        30.02S
BROWNLEE         N/A     64  34  33 E8          N/A
SPRINGVIEW       N/A     60  36  40 CALM        N/A
BREWSTER         N/A     64  43  46 SE7         N/A
ROSE             N/A     64  43  45 E6          N/A
NEWPORT          N/A     53  37  54 E6          N/A
SARGENT          N/A     63  42  45 CALM        N/A
COMSTOCK         N/A     64  45  48 E5          N/A
CHAMBERS         N/A     59  33  37 E3          N/A
EWING            N/A     57  38  50 CALM        N/A
$$

...OBSERVATIONS IN SOUTHWEST NEBRASKA AND FAR NORTHEAST COLORADO...

CITY           SKY/WX    TMP DP  RH WIND       PRES   REMARKS
WRAY           FAIR      76  34  21 CALM      30.00F
HOLYOKE        FAIR      68  34  28 E3        30.01F
IMPERIAL       CLEAR     67  40  37 E7        29.99F
OGALLALA       CLEAR     70  44  39 E8        30.00S
NORTH PLATTE   CLEAR     62  47  57 E8        29.99S
MCCOOK         CLEAR     72  46  39 E9        29.96F
LEXINGTON      CLEAR     66  48  51 E8        29.99F
PAXTON           N/A     77  49  37 NE3         N/A
SUTHERLAND       N/A     71  44  37 E8          N/A
BRADY            N/A     67  47  48 CALM        N/A
GOTHENBURG       N/A     73  44  36 E7          N/A
CALLAWAY         N/A     72  47  41 E12         N/A
$$

...SOME WEATHER OBSERVATIONS FROM AROUND THE REGION...

CITY           SKY/WX    TMP DP  RH WIND       PRES   REMARKS
DENVER         CLEAR     67  24  19 E9        30.05F
LARAMIE        CLEAR     61  18  18 SW12      30.14F
CHEYENNE       CLEAR     65  22  19 S8        30.10F
SCOTTSBLUFF    CLEAR     67  36  31 E12       29.98F
RAPID CITY     CLEAR     56  38  50 SE8       29.96F
PIERRE         CLEAR     55  29  36 SE8       30.01F
WINNER         FAIR      58  32  37 SE9       30.03S
SIOUX FALLS    CLEAR     54  36  50 NE5       30.06F
OMAHA          CLEAR     66  41  40 E8        30.03F
GRAND ISLAND   CLEAR     62  44  51 E7        30.02F
KANSAS CITY    CLEAR     70  54  56 NE6       30.01F
WICHITA        CLEAR     76  57  51 S8        29.98S
HAYS           CLEAR     73  52  46 SE10      29.94F
LIBERAL        CLEAR     79  43  27 S9        30.00S
GOODLAND       CLEAR     68  45  43 S7        29.99F
$$



USA.gov is the U.S. government's official web portal to all federal, state and local government web resources and services.